Probability
0 0 0 0 0 0 0 0 0 0 0 0 0 0 0 0 0 0 0 0 0 0 0 0 0 0 0 0 0 0 0 0 0 0 0 0 0 0 0 0 0 0 0 0
0 0 0 0 0 0 0 0 0 0 0 0 0 0 0 0 0 0 0 0 0 0 0 0 0 0 0 0 0 0 0 0 0 0 0 0 0 0 0 0 0 0 0 0
0 0 0 0 0 0 0 0 0 0 0 0 0 0 0 0 0 0 0 0 0 0 0 0 0 0 0 0 0 0 0 0 0 0 0 0 0 0 0 0 0 0 0 0
0 0 0 0 0 0 0 0 0 0 0 0 0 0 0 0 0 0 0 0 0 0 0 0 0 0 0 0 0 0 0 0 0 0 0 0 0 0 0 0 0 0 0 0
0 0 0 0 0 0 0 0 0 0 0 0 0 0 0 0 0 0 0 0 0 0 0 0 0 0 0 0 0 0 0 0 0 0 0 0 0 0 0 0 0 0 0 0
0 0 0 0 0 0 0 0 0 0 0 0 0 0 0 0 0 0 0 0 0 0 0 0 0 0 0 0 0 0 0 0 0 0 0 0 0 0 0 0 0 0 0 0
0 0 0 0 0 0 0 0 0 0 0 0 0 0 0 0 0 0 0 0 0 0 0 0 0 0 0 0 0 0 0 0 0 0 0 0 0 0 0 0 0 0 0 0
0 0 0 0 0 0 0 0 0 0 0 0 0 0 0 0 0 0 0 0 0 0 0 0 0 0 0 0 0 0 0 0 0 0 0 0 0 0 0 0 0 0 0 0
0 0 0 0 0 0 0 0 0 0 0 0 0 0 0 0 0 0 0 0 0 0 0 0 0 0 0 0 0 0 0 0 0 0 0 0 0 0 0 0 0 0 0 0
0 0 0 0 0 0 0 0 0 0 0 0 0 0 0 0 0 0 0 0 0 0 0 0 0 0 0 0 0 0 0 0 0 0 0 0 0 0 0 0 0 0 0 0
0 0 0 0 0 0 0 0 0 0 0 0 0 0 0 0 0 0 0 0 0 0 0 0 0 0 0 0 0 0 0 0 0 0 0 0 0 0 0 0 0 0 0 0
0 0 0 0 0 0 0 0 0 0 0 0 0 0 0 0 0 0 0 0 0 0 0 0 0 0 0 0 0 0 0 0 0 0 0 0 0 0 0 0 0 0 0 0
0 0 0 0 0 0 0 0 0 0 0 0 0 0 0 0 0 0 0 0 0 0 0 0 0 0 0 0 0 0 0 0 0 0 0 0 0 0 0 0 0 0 0 0
0 0 0 0 0 0 0 0 0 0 0 0 0 0 0 0 0 0 0 0 0 0 0 0 0 0 0 0 0 0 0 0 0 0 0 0 0 0 0 0 0 0 0 0
0 0 0 0 0 0 0 0 0 0 0 0 0 0 0 0 0 0 0 0 0 0 0 0 0 0 0 0 0 0 0 0 0 0 0 0 0 0 0 0 0 0 0 0
0 0 0 0 0 0 0 0 0 0 0 0 0 0 0 0 0 0 0 0 0 0 0 0 0 0 0 0 0 0 0 0 0 0 0 0 0 0 0 0 0 0 0 0
0 0 0 0 0 0 0 0 0 0 0 0 0 0 0 0 0 0 0 0 0 0 0 0 0 0 0 0 0 0 0 0 0 0 0 0 0 0 0 0 0 0 0 0
0 0 0 0 0 0 0 0 0 0 0 0 0 0 0 0 0 0 0 0 0 0 0 0 0 0 0 0 0 0 0 0 0 0 0 0 0 0 0 0 0 0 0 0
0 0 0 0 0 0 0 0 0 0 0 0 0 0 0 0 0 0 0 0 0 0 0 0 0 0 0 0 0 0 0 0 0 0 0 0 0 0 0 0 0 0 0 0
0 0 0 0 0 0 0 0 0 0 0 0 0 0 0 0 0 0 0 0 0 0 0 0 0 0 0 0 0 0 0 0 0 0 0 0 0 0 0 0 0 0 0 0
0 0 0 0 0 0 0 0 0 0 0 0 0 0 0 0 0 0 0 0 0 0 0 0 0 0 0 0 0 0 0 0 0 0 0 0 0 0 0 0 0 0 0 0
0 0 0 0 0 0 0 0 0 0 0 0 0 0 0 0 0 0 0 0 0 0 0 0 0 0 0 0 0 0 0 0 0 0 0 0 0 0 0 0 0 0 0 0
0 0 0 0 0 0 0 0 0 0 0 0 0 0 0 0 0 0 0 0 0 0 0 0 0 0 0 0 0 0 0 0 0 0 0 0 0 0 0 0 0 0 0 0
0 0 0 0 0 0 0 0 0 0 0 0 0 0 0 0 0 0 0 0 0 0 0 0 0 0 0 0 0 0 0 0 0 0 0 0 0 0 0 0 0 0 0 0
0 0 0 0 0 0 0 0 0 0 0 0 0 0 0 0 0 0 0 0 0 0 0 0 0 0 0 0 0 0 0 0 0 0 0 0 0 0 0 0 0 0 0 0
0 0 0 0 0 0 0 0 0 0 0 0 0 0 0 0 0 0 0 0 0 0 0 0 0 0 0 0 0 0 0 0 0 0 0 0 0 0 0 0 0 0 0 0
Wind_Speed
3 7 11 14 14 3 3 5 6 5 1 5 12 18 18 15 14 16 17 17 17 18 18 14 14 15 16 17 17 18 17 16 13 10 9 8 8 7 6 6 8 11 12 13
5 12 13 5 6 5 5 7 8 6 2 5 11 19 19 17 18 19 19 19 19 19 17 14 13 14 17 19 19 19 19 18 16 13 10 7 8 6 6 5 7 9 11 13
16 5 6 8 7 9 11 12 12 9 2 5 8 16 15 12 11 14 17 19 21 21 21 17 14 15 16 18 20 17 20 19 18 15 10 6 5 4 5 6 7 8 10 11
13 5 7 8 12 14 12 11 11 9 8 7 5 12 10 8 11 13 16 18 21 20 19 17 14 14 16 17 16 17 18 18 18 17 14 15 13 12 13 9 8 8 9 11
11 10 11 12 11 14 6 3 5 5 7 9 9 11 14 5 13 16 17 19 19 17 15 14 12 12 13 13 14 15 17 18 18 18 18 17 15 12 9 9 10 10 8 10
3 4 6 6 3 7 9 8 6 2 3 14 14 13 17 9 13 14 13 14 13 11 9 8 8 7 8 10 12 13 16 17 18 18 18 19 18 15 13 13 12 10 7 8
8 6 4 4 8 7 8 7 4 5 7 14 5 12 18 8 11 12 12 10 7 5 5 6 5 6 7 9 11 13 15 17 17 18 18 18 18 17 17 15 14 12 9 8
14 13 13 11 11 13 14 15 12 10 9 10 5 15 12 4 8 11 14 14 11 9 7 7 6 6 6 8 11 13 15 16 16 17 17 16 16 12 11 14 13 14 11 11
13 11 5 10 4 13 12 14 11 7 4 9 15 15 10 6 11 15 16 15 14 10 7 7 6 5 6 7 10 12 14 15 16 16 16 16 15 14 13 13 13 11 11 10
9 7 3 3 3 3 5 8 6 9 8 13 17 20 14 8 16 16 14 13 11 7 5 5 4 5 5 6 8 10 12 14 15 15 15 12 15 15 13 12 14 12 12 11
10 10 4 5 14 15 10 9 9 8 7 9 12 16 6 9 8 8 8 7 6 5 4 4 4 3 4 5 7 10 12 13 13 14 14 14 14 14 13 12 13 13 12 12
9 7 9 10 5 5 12 16 17 12 9 7 10 19 3 5 4 4 5 4 3 4 4 4 4 4 5 7 8 10 11 13 13 14 14 15 14 14 14 14 13 13 13 13
8 7 5 5 5 5 9 12 16 13 7 10 13 18 2 1 2 4 5 5 4 5 5 5 5 6 7 8 9 10 12 12 13 13 14 15 15 16 16 15 14 14 13 13
5 8 11 14 5 8 10 13 16 15 11 16 24 29 15 7 5 6 7 7 8 8 8 9 9 9 9 9 9 10 12 12 13 14 15 16 17 16 16 14 14 14 14 14
5 8 11 15 11 6 9 13 17 22 24 20 25 30 32 16 14 14 14 14 14 15 14 13 12 11 10 9 11 11 12 12 13 15 16 17 15 15 14 14 14 13 13 14
8 7 7 13 16 13 14 18 21 23 23 27 29 35 28 16 16 18 18 17 19 19 18 15 13 12 11 11 11 11 12 12 13 16 16 14 13 13 13 13 12 12 13 13
5 5 5 11 9 9 18 23 23 21 22 21 28 34 23 19 17 18 18 19 19 19 17 16 15 13 11 11 10 12 12 11 13 15 13 12 12 13 13 12 13 14 14 13
9 6 5 7 6 18 14 10 19 24 26 25 26 28 23 19 19 17 16 17 18 17 16 15 13 13 10 8 8 8 8 10 12 12 11 11 12 12 12 13 14 14 12 12
18 14 9 8 14 15 15 10 10 15 22 21 24 27 26 20 17 21 15 14 16 14 12 10 8 8 8 7 6 5 7 9 10 11 12 12 11 11 12 13 14 12 10 11
15 16 13 13 16 15 13 4 6 8 17 9 10 17 20 14 15 17 6 5 7 5 4 5 5 5 5 4 2 5 6 8 10 10 10 10 10 10 12 12 10 8 8 8
4 9 15 18 18 13 7 1 6 11 10 4 5 11 14 14 14 10 4 3 3 3 3 3 3 2 3 3 1 3 4 6 5 5 6 7 8 9 9 8 7 7 7 7
8 8 9 10 14 12 1 2 4 5 7 7 8 9 9 10 10 7 5 3 3 3 2 2 1 2 4 3 1 2 1 1 3 5 6 6 7 7 7 8 8 8 8 8
11 9 6 7 7 3 3 4 5 4 7 8 8 10 9 9 9 7 5 3 2 2 2 2 1 3 4 5 3 2 2 3 5 5 5 6 6 6 7 8 8 8 7 7
6 3 6 8 9 8 8 6 4 4 6 8 8 8 8 9 8 6 4 2 1 1 1 2 2 3 4 5 5 3 2 4 6 7 6 6 6 6 6 5 6 6 7 7
8 5 7 11 10 9 6 5 6 7 7 7 7 5 6 6 6 5 3 2 1 1 1 2 2 3 4 5 6 6 3 4 7 7 6 6 5 6 5 4 4 5 4 5
14 14 14 14 10 9 10 8 8 8 9 9 8 7 5 4 5 3 3 1 2 2 2 3 4 4 5 5 6 7 5 3 6 6 5 4 4 4 4 5 4 4 3 5
Wind_Direction
134 190 207 210 214 227 181 199 231 244 170 227 248 261 265 266 258 260 261 259 256 254 254 242 222 211 209 209 208 208 206 202 195 191 193 196 202 199 198 198 194 186 179 174
165 223 222 199 174 173 193 226 250 264 197 243 271 272 271 262 255 253 256 256 256 256 252 238 221 211 208 209 208 208 207 202 199 200 197 200 196 199 198 186 191 189 181 176
212 207 188 167 177 201 221 231 242 250 274 234 280 276 255 249 246 255 255 255 258 257 257 251 228 216 213 213 210 208 207 203 201 197 188 165 167 168 183 193 192 191 183 179
231 182 149 186 206 203 230 226 235 243 263 266 236 281 269 244 249 248 251 250 251 253 253 254 245 228 218 217 212 211 208 205 201 194 192 190 194 199 201 192 186 181 182 181
215 185 186 203 205 195 204 128 184 218 240 269 231 258 269 233 257 254 249 250 254 257 256 257 251 241 229 216 209 208 208 206 202 199 200 202 207 208 195 182 177 178 181 183
245 188 218 212 124 163 131 106 90 111 220 260 246 237 267 225 247 258 248 247 252 259 264 264 261 245 230 211 205 204 205 206 203 203 204 206 207 200 188 186 182 181 179 182
218 216 205 152 120 143 171 163 202 221 221 252 181 230 262 223 231 248 260 257 252 264 273 273 261 239 221 205 202 201 205 207 204 205 208 209 209 203 199 194 190 183 181 186
216 226 194 190 187 174 194 200 209 230 239 261 192 240 261 237 260 263 263 264 267 265 266 264 259 243 222 207 201 201 206 209 206 207 210 210 209 206 205 202 195 193 194 190
214 232 163 195 197 176 183 218 235 248 269 276 261 257 268 237 253 248 249 255 260 263 259 257 252 238 220 207 203 203 206 210 208 208 209 210 208 207 204 200 201 201 199 187
206 226 170 155 156 254 209 169 160 202 225 249 258 262 261 216 232 239 245 250 257 258 255 253 247 238 224 212 205 206 210 213 211 209 209 209 209 208 205 199 200 199 195 186
210 224 193 171 201 193 171 187 203 206 217 231 261 263 233 221 230 240 245 248 254 250 247 242 240 238 229 219 208 206 210 212 211 209 208 209 209 207 205 203 201 198 193 187
203 222 236 222 213 245 214 208 197 203 217 228 252 265 171 216 237 250 259 259 258 257 255 251 248 245 232 224 216 213 213 213 210 207 206 208 208 205 205 205 202 196 192 189
164 187 212 224 205 196 218 219 217 223 212 215 235 261 99 145 240 245 255 265 264 258 263 264 256 247 238 230 223 218 217 216 210 205 205 207 207 206 207 205 200 195 191 187
174 199 216 231 223 179 205 216 215 213 223 234 239 254 251 244 261 264 261 264 269 270 270 267 261 251 241 234 230 224 220 215 209 205 207 210 209 207 207 204 199 195 191 188
194 228 235 252 258 228 222 226 221 221 227 236 248 255 259 254 256 266 274 278 277 275 273 270 265 263 255 241 234 228 224 214 207 207 211 213 210 207 205 202 198 194 193 193
197 230 240 252 249 245 249 245 236 233 237 244 255 260 264 265 259 263 264 263 266 270 272 271 263 260 255 246 239 230 225 215 207 211 215 212 205 202 202 199 193 191 194 193
219 213 237 257 250 248 247 240 237 237 235 240 249 258 268 267 260 259 262 262 264 266 268 269 269 265 255 250 240 234 225 211 206 213 213 207 201 200 200 194 192 195 196 193
233 228 246 264 247 244 251 246 231 237 242 240 247 259 264 264 268 267 266 267 267 267 267 268 268 269 265 260 249 238 219 207 206 211 208 202 198 199 197 195 198 199 197 197
222 224 233 244 253 262 265 248 220 234 250 246 248 257 265 270 276 273 264 257 262 269 272 274 276 278 279 267 252 225 211 205 207 210 208 202 196 194 193 197 200 198 195 198
221 221 225 235 245 250 261 247 210 223 255 257 251 260 267 271 268 274 285 262 265 277 283 285 289 288 283 283 241 205 203 202 209 209 205 196 189 188 192 196 195 189 187 192
200 218 227 237 245 251 275 281 158 219 258 325 274 268 272 265 263 291 313 291 285 289 299 303 303 312 320 318 207 192 194 210 207 185 177 178 180 182 183 178 173 168 172 174
231 238 235 239 244 244 38 77 225 290 323 309 301 291 286 285 292 293 293 296 303 305 332 343 357 12 6 7 108 141 169 164 142 148 155 160 162 166 160 159 160 163 166 171
225 225 230 233 250 283 215 241 258 269 286 294 298 300 296 290 288 287 285 289 306 332 358 14 49 50 32 24 47 96 81 109 120 122 127 134 138 143 150 155 157 160 168 177
246 243 249 260 265 283 288 277 271 268 270 281 284 287 288 286 283 277 270 268 303 17 24 37 65 67 44 28 36 46 79 111 116 118 121 127 132 136 140 148 156 165 174 182
249 249 256 263 273 287 267 265 277 280 276 277 279 273 274 277 275 269 258 233 177 95 53 60 75 73 50 34 35 23 36 109 116 117 119 124 126 133 139 143 155 168 176 188
244 247 252 260 260 261 270 270 264 267 269 266 268 271 261 240 245 236 233 218 135 105 88 82 74 69 50 40 35 17 11 77 115 115 118 120 125 128 132 137 131 138 140 174